weather.gov     
National Weather Service

Regional Weather Roundup
NWS Homepage
This page is being discontinued on March 12, 2014.
The same data is available at this site. Please update your bookmarks.
Thank you, and we apologize for the inconvenience.
Please send an email to SR-SRH.Webmaster@noaa.gov with any concerns.


Current Version
Previous Version:    01  02  03  04  05  06  07  08  09  10  11  12  13  14  15  16  17  18  19  20  21  22  23  24  
[Printable]
304
ASUS44 KSJT 230210
RWRSJT
WEST CENTRAL TEXAS REGIONAL WEATHER ROUNDUP
NATIONAL WEATHER SERVICE SAN ANGELO TX
800 PM CST SAT NOV 22 2014

NOTE: "FAIR" INDICATES FEW OR NO CLOUDS BELOW 12,000 FEET WITH NO
SIGNIFICANT WEATHER AND/OR OBSTRUCTIONS TO VISIBILITY.

TXZ049-054-064>066-071>073-076>078-098-099-113-114-127-128-139-140-
154-155-168>170-230300
...LOCATIONS ACROSS WEST CENTRAL TEXAS...

CITY           SKY/WX    TMP DP  RH WIND       PRES   REMARKS
SAN ANGELO     MOCLDY    58  55  90 CALM      29.82R
ABILENE        CLOUDY    55  54  96 S7        29.79S
DYESS AFB      CLOUDY    53  50  90 S7        29.77S
JUNCTION       PTCLDY    64  49  57 SW15      29.81R
SWEETWATER     MOCLDY    55  55 100 SE14      29.81F
BROWNWOOD      LGT RAIN  55  55 100 E13       29.82F
COLEMAN        CLOUDY    56  55  95 E18       29.76F
SONORA         CLOUDY    59  48  67 N6        29.84S
OZONA          FAIR      59  41  51 CALM      29.82S
BRADY          LGT RAIN  55  54  94 NE17      29.77F
$$

TEXAS PANHANDLE/OKLAHOMA PANHANDLE

CITY           SKY/WX    TMP DP  RH WIND       PRES   REMARKS
AMARILLO       CLEAR     49  40  71 SE14      29.69F
BORGER         PTCLDY    52  49  89 S20G35    29.65F
CANADIAN       CLOUDY    54  53  96 S20G29    29.67F
DALHART        CLEAR     49  17  28 S12       29.62F
DUMAS            N/A     47  18  30 S13       29.64R
GUYMON         NOT AVBL
HEREFORD       CLEAR     50  25  37 MISG      29.71S
PAMPA          FOG       51  50  98 S17G26    29.69F VSB 1
PERRYTON       CLOUDY    54  50  89 S26G33    29.64S
$$

SOUTHERN PANHANDLE/SOUTH PLAINS/ROLLING PLAINS

CITY           SKY/WX    TMP DP  RH WIND       PRES   REMARKS
LUBBOCK        PTCLDY    54  51  90 S10       29.75F FOG
SNYDER         MOCLDY    51  50  96 S7        29.79F
CHILDRESS      CLOUDY    54  52  93 S12       29.75S
SEMINOLE       CLEAR     54  32  43 W7        29.80S
$$

PERMIAN BASIN

CITY           SKY/WX    TMP DP  RH WIND       PRES   REMARKS
MIDLAND        CLEAR     57  53  86 CALM      29.79S
ODESSA         CLEAR     58  36  43 W5        29.80S
WINK           CLEAR     60  34  37 W12       29.79F
$$

FAR WEST/SOUTHWEST MOUNTAINS/TRANS PECOS

CITY           SKY/WX    TMP DP  RH WIND       PRES   REMARKS
ALPINE         CLEAR     54  35  48 W8        29.99R
DRYDEN           N/A     60  40  47 W7        29.81R
EL PASO        PTCLDY    61  19  19 W9        29.91R
FORT STOCKTON  CLEAR     58  37  45 SW12      29.85R
GUADALUPE PASS CLEAR     50  28  42 SW17G24   29.93R
MARFA          CLEAR     52  34  50 W12       29.97R
PECOS          CLEAR     58  36  43 SW9       29.83S
$$

DALLAS/FORT WORTH METROPLEX

CITY           SKY/WX    TMP DP  RH WIND       PRES   REMARKS
DFW AIRPORT    LGT RAIN  56  56 100 E3        29.81F
FTW MEACHAM    CLOUDY    60  55  83 N3        29.83F
DAL-EXECUTIVE  LGT RAIN  60  56  86 CALM      29.82F
GRAND PRAIRIE  CLOUDY    58  58 100 SW6       29.85F
ADDISON        RAIN      61  57  88 SE7       29.84F
MESQUITE       RAIN      61  61 100 N9        29.81F
LANCASTER      LGT RAIN  60  58  91 W6        29.84F
$$

NORTH CENTRAL TEXAS

CITY           SKY/WX    TMP DP  RH WIND       PRES   REMARKS
SHRMAN/DENISON RAIN      59  59 100 SW8       29.86F
GAINESVILLE    DRIZZLE   57  55  94 SE9       29.81F
BRIDGEPORT     CLOUDY    56  56 100 SE3       29.82R
DENTON         CLOUDY    58  56  93 SE3       29.82F
WAXAHACHIE     LGT RAIN  58  58 100 CALM      29.85R
GRANBURY       RAIN      58  56  92 SE5       29.86F
$$

WESTERN NORTH TEXAS

CITY           SKY/WX    TMP DP  RH WIND       PRES   REMARKS
WICHITA FALLS  CLOUDY    55  54  96 SW6       29.77R
VERNON         MOCLDY    55  54  94 S7        29.77R
BRECKENRIDGE   CLOUDY    58  56  92 SE18G31   29.74F
COMANCHE       RAIN      55  55 100 SE3       29.86F
$$

CENTRAL AND SOUTH CENTRAL TEXAS

CITY           SKY/WX    TMP DP  RH WIND       PRES   REMARKS
AUSTIN/BERGSTM TSTM      66  66 100 W10G20    29.76R
WACO           CLOUDY    60  59  96 NE7       29.80F
HILLSBORO      CLOUDY    60  58  93 N17       29.80F
TEMPLE         CLOUDY    61  55  82 N5        29.80R
KILLEEN-GRAY   CLOUDY    59  59 100 NE10      29.78F FOG
FORT HOOD      TSTM      63  61  94 N6        29.78F
GEORGETOWN     TSTM      63  61  94 CALM      29.80S
LAGO VISTA     CLOUDY    60  58  92 NE7       29.77S
SAN MARCOS     CLOUDY    68  66  94 S7        29.74F
NEW BRAUNFELS  CLOUDY    69  67  93 S12       29.70F
RANDOLPH AFB   TSTM      66  63  88 N13G38    29.72S
SAN ANTONIO    TSTM      64  53  67 S15G35    29.80R VSB 1/4
STINSON        TSTM      61  57  87 W33G47    29.75R VSB 1/2
PLEASANTON     NOT AVBL
LA GRANGE      CLOUDY    70  69  96 S8        29.75F
GIDDINGS       CLOUDY    67  66  97 S8G20     29.80F
$$

EAST TEXAS

CITY           SKY/WX    TMP DP  RH WIND       PRES   REMARKS
PARIS          CLOUDY    59  55  88 E3        29.88S
CLARKSVILLE    NOT AVBL
TYLER          LGT RAIN  63  60  90 E5        29.83F
LONGVIEW       TSTM      62  60  93 VRB6      29.85F VSB 1
PALESTINE      CLOUDY    64  62  94 SE6       29.81S
NACOGDOCHES    CLOUDY    63  61  94 E12       29.83F
$$

TEXAS HILL COUNTRY AND EDWARDS PLATEAU

CITY           SKY/WX    TMP DP  RH WIND       PRES   REMARKS
LLANO          CLOUDY    61  61 100 N7        29.82R
HORSESHOE BAY  CLOUDY    61  61 100 CALM      29.77S
KERRVILLE      CLOUDY    61  57  86 SE3       29.80R
FREDERICKSBRG  MOCLDY    64  56  74 W9        29.77F
ROCKSPRINGS    MOCLDY    61  46  59 MISG      29.85R
HONDO          TSTM      55  55 100 SW14      29.87R
UVALDE         CLOUDY    66  52  61 E12       29.80F
DEL RIO        PTCLDY    59  53  80 CALM      29.78R
$$

SOUTHEAST TEXAS

CITY           SKY/WX    TMP DP  RH WIND       PRES   REMARKS
COLLEGE STN    LGT RAIN  64  63  96 SE3       29.79S FOG
CALDWELL       CLOUDY    64  64 100 SE8       29.79F
CROCKETT       NOT AVBL
BRENHAM        CLOUDY    68  66  93 SE12      29.79F
HUNTSVILLE     LGT RAIN  65  64  97 CALM      29.82R FOG
CONROE         CLOUDY    66  64  93 S9        29.82R
HOUSTON BUSH   CLOUDY    67  65  93 SE15      29.82R FOG
HOUSTON HOBBY  HVY RAIN  66  65  96 SE9       29.82R FOG
PERLAND        LGT RAIN  66  65  96 E3        29.83F
WHARTON        CLOUDY    68  65  91 SE9       29.81R
$$

THE UPPER TEXAS COAST

CITY           SKY/WX    TMP DP  RH WIND       PRES   REMARKS
ORANGE         RAIN     N/A N/A N/A E14       29.87S
PORT ARTHUR    LGT RAIN  64  63  96 SE10      29.85F FOG
GALVESTON      RAIN      67  66  97 SE15      29.83F FOG
ANGLETON       LGT RAIN  67  66  97 SE13      29.81F
BAY CITY       LGT RAIN  70  68  93 SE13G18   29.79F
$$

TEXAS COASTAL BEND, RIO GRANDE PLAINS DEEP SOUTH TEXAS

CITY           SKY/WX    TMP DP  RH WIND       PRES   REMARKS
VICTORIA       CLOUDY    71  68  90 S10       29.80R
BEEVILLE       TSTM      70  64  81 S17G30    29.68F
ROCKPORT       TSTM      67  66  97 W8        29.79F FOG
PORT ARANSAS   TSTM      68  67  97 W13       29.80R
PORT LAVACA    CLOUDY    69  67  93 S8        29.79F
CORPUS CHRISTI TSTM      65  60  84 N13       29.84R
KINGSVILLE NAS TSTM      65  62  90 NE8G18    29.80S
COTULLA        LGT RAIN  66  53  63 N18G33    29.77R
LAREDO         PTCLDY    64  57  78 S8        29.80R
BROWNSVILLE    CLOUDY    75  71  87 S15       29.73S
PORT ISABEL    CLOUDY    74  71  91 S12       29.72S
HEBBRONVILLE   CLOUDY    62  60  93 S7        29.81R
MCALLEN        CLOUDY    74  69  85 S5        29.79R
WESLACO        MOCLDY    73  67  82 W8        29.80R
FALFURRIAS     CLOUDY    64  61  90 N7        29.80F
EDINBURG       TSTM      75  67  77 W7        29.80R
$$




U.S. Dept. of Commerce
NOAA National Weather Service
1325 East West Highway
Silver Spring, MD 20910
E-mail: w-nws.webmaster@noaa.gov
Page last modified: May 16, 2007
NATIONAL WEATHER SERVICE: for Safety, for Work, for Fun - FOR LIFE